sat.trackr.live / text

‹ back to catalog

STARLINK-11159 [DTC]

NORAD 60905 · 2024-154C

PAYLOAD ACTIVE UNKNOWN

§ Identity

Operator
Country
US
Launch date
2024-08-31
Launch site
AFETR
Launch vehicle
Mass (kg)
RCS (m²)

Purposes: comms

External: N2YO · Heavens-Above · Gunter

§ Orbital elements

Epoch: 2026-09-21T08:49:18.751296Z

Period
91.74 min
Inclination
53.1590°
Eccentricity
0.0001153
Mean motion
15.69705391 rev/d
Perigee alt
359.0 km
Apogee alt
360.5 km
Semi-major
6,737.9 km
B*
4.7140e-6
RAAN
246.9509°
Arg perigee
99.8536°
Mean anomaly
260.2612°
Rev number
11,924

§ Raw data

STARLINK-11159 [DTC]1 60905U 24154C   26264.36757814 -.00000018  00000+0  47140-5 0  99972 60905  53.1590 246.9509 0001153  99.8536 260.2612 15.69705391119242

JSON: /api/v1/satellites/60905 · /tle

For live sub-satellite position, see the globe view (requires WebGL).

§ Visibility from observer

Set your observer location to see the next 7 days of passes ≥ 10°. The values pass through the URL so the page stays shareable.

No JS? Fill the form by hand. The geolocation button needs JavaScript.